Location: Hohenfelde
(53.8441°N, 9.6220°E)
Time: 12:40:56
(UTC+00:00)

CZ-2D R/B - Pass Details

Date: 14 July 2020
Orbit: 792 x 844 km, 98.7° (Epoch: 13 August)

Event Time Altitude Azimuth Distance (km) Brightness Sun altitude
Rises 00:36:56 0° 19° (NNE) 3,345 7.4 -13.0°
Reaches altitude 10° 00:39:23 10° 25° (NNE) 2,417 6.0 -12.9°
Maximum altitude 00:44:30 45° 99° (E) 1,106 2.9 -12.7°
Enters shadow 00:49:09 13° 170° (S) 2,238 3.9 -12.5°
